Other Public Products
Issued by NWS Grand Forks, ND

Home | Current Version | Previous Version | Graphics & Text | Print | Product List | Glossary On
Versions: 1 2 3 4 5 6 7 8 9 10 11 12 13 14 15 16 17 18 19 20 21 22 23 24 25 26 27 28 29 30 31 32 33 34 35 36 37 38 39 40 41 42 43 44 45 46 47 48 49 50
000
FPUS83 KFGF 030710
OPUFGF
PRAIRIE TO PINES WEATHER ROUNDUP
NATIONAL WEATHER SERVICE EASTERN NORTH DAKOTA/GRAND FORKS ND
200 AM CDT TUE MAY 03 2016

 **SATELLITE DATA USED TO AUGMENT SKY COVER AT AUTOMATED STATIONS**
 *****  WEATHER ACROSS EASTERN NORTH DAKOTA  *****

CITY           SKY/WX    TMP DP  RH WIND       PRES   REMARKS
GRAND FORKS    CLOUDY    52  37  56 W10       29.92F
GRAND FORKS AF CLOUDY    54  36  50 W12       29.93F
GRAND CITY NWS NOT AVBL
BUXTON         NOT AVBL
DEVILS LAKE    CLOUDY    50  40  68 SW8       29.97F
FARGO          PTCLDY    49  36  61 W7        29.96F
WAHPETON ARPT  CLOUDY    43  32  65 SW5       29.99S
$$

 *****  WEATHER ACROSS CENTRAL AND WESTERN NORTH DAKOTA  *****

CITY           SKY/WX    TMP DP  RH WIND       PRES   REMARKS
JAMESTOWN      CLOUDY    42  36  79 CALM      29.99S
BISMARCK       PTCLDY    42  40  92 CALM      30.02S
MINOT          CLOUDY    57  36  45 SW10      29.97F
MINOT AFB      NOT AVBL
GARRISON         N/A     44  35  70 CALM      30.00S
WILLISTON      CLEAR     42  33  70 CALM      30.02S
DICKINSON      CLEAR     40  31  70 SW5       30.01S
HETTINGER      CLEAR     33  29  85 CALM      30.06R
$$

 *****  OTHER OBSERVATIONS NORTHEAST NORTH DAKOTA  *****

CITY           SKY/WX    TMP DP  RH WIND       PRES   REMARKS
WALHALLA       FAIR      57  36  44 W13G21    29.90F
LANGDON        FAIR      46  36  66 W12       29.94F
CAVALIER       FAIR      57  36  44 W16G22    29.90F
GRAFTON        FAIR      54  39  58 W13       29.93F
CANDO          FAIR      45  36  70 W7        29.98F
FORT TOTTEN      N/A     50  36  59 S6        29.95S
ROLLA          CLOUDY    52  36  54 W15       29.97F
RUGBY          FAIR      46  39  76 SW7       29.97S
 ***** THE ABOVE OBSERVATIONS ARE NON NWS ARE NOT QUALITY
        CONTROLLED AND MAY MIS-REPORT RAIN FOR SNOW...
$$

 *****  OTHER OBSERVATIONS SOUTHEAST NORTH DAKOTA *****

CITY           SKY/WX    TMP DP  RH WIND       PRES   REMARKS
COOPERSTOWN    NOT AVBL
VALLEY CITY    FAIR      45  41  87 W9        30.01S
OAKES            N/A    N/A N/A N/A MISG        N/A
GWINNER        FAIR      43  37  81 W7        30.00S
BUFFALO        NOT AVBL
WYNDMERE         N/A     46  36  66 W6          N/A
 ***** THE ABOVE OBSERVATIONS ARE NON NWS ARE NOT QUALITY
       CONTROLLED AND MAY MIS-REPORT RAIN FOR SNOW...
$$

  *****  WEATHER ACROSS NORTHERN MINNESOTA  *****

CITY           SKY/WX    TMP DP  RH WIND       PRES   REMARKS
FLAG ISLAND    CLOUDY    54  32  43 W14       29.80F
WARROAD        CLOUDY    52  36  54 SW8       29.85F
ROSEAU         PTCLDY    54  37  54 SW10      29.86F
HALLOCK        CLOUDY    54  36  50 W13       29.89S
THF RVR FALLS  CLOUDY    52  34  50 W9        29.93F
HALSTAD        NOT AVBL
FOSSTON        CLOUDY    50  36  57 W7        29.94F
BAUDETTE       CLOUDY    49  30  48 SW6       29.85F
WASKISH        CLOUDY    52  36  54 SW7       29.88F
CROOKSTON      CLOUDY    52  36  54 W8        29.94S
$$
  *****  WEATHER ACROSS CENTRAL AND WEST MINNESOTA  *****

CITY           SKY/WX    TMP DP  RH WIND       PRES   REMARKS
BEMIDJI        CLOUDY    49  35  58 W8        29.91F
PARK RAPIDS    CLOUDY    47  32  56 W5        29.94F
WADENA         CLOUDY    46  32  57 W6        29.95F
DETROIT LAKES  PTCLDY    52  36  54 W7        29.97F
MOORHEAD       PTCLDY    52  37  58 W5        29.97F
FERGUS FALLS   CLOUDY    50  36  57 N3        29.96S
ELBOW LAKE     FAIR      48  39  73 CALM      29.99S
MORRIS MN      CLEAR     48  34  57 W7        29.98S
STAPLES        CLEAR     45  30  57 W5        29.95F
WHEATON        CLEAR     48  39  71 W3        30.01F
$$
  *****  WEATHER ELSEWHERE ACROSS MINNESOTA  *****

CITY           SKY/WX    TMP DP  RH WIND       PRES   REMARKS
DULUTH         CLEAR     45  30  55 W8        29.90F
INTRNTL FALLS  CLOUDY    41  30  65 SW7       29.83F
ELY            CLOUDY    45  30  57 SW7       29.86F
CLOQUET        CLEAR     52  28  40 SW8       29.91F
BRAINERD       CLEAR     46  31  55 SW3       29.94F
HIBBING        CLOUDY    33  30  88 CALM      29.88F
ALEXANDRIA     CLEAR     45  34  65 W6        29.98F
SAINT CLOUD    CLEAR     43  36  76 CALM      29.96F
MINNEAPOLIS    CLEAR     53  36  52 W5        29.98F
$$

  *****  WEATHER ACROSS SOUTH DAKOTA  *****

CITY           SKY/WX    TMP DP  RH WIND       PRES   REMARKS
SIOUX FALLS    CLEAR     41  38  89 CALM      30.03F
BROOKINGS      CLEAR     45  40  82 CALM      30.01F
WATERTOWN      CLEAR     43  38  82 CALM      30.01S
HURON          CLEAR     42  41  96 CALM      30.02S
SISSETON         N/A     44  37  76 CALM      29.99S
ABERDEEN       CLEAR     38  34  85 CALM      30.02S
MITCHELL       CLEAR     46  44  93 S6        30.03F
PIERRE         CLEAR     43  40  89 SW5       30.04R
MOBRIDGE       CLEAR     40  39  97 CALM      29.99S
RAPID CITY     CLEAR     43  36  76 NW10      30.07R
$$

  *****  SOME WEATHER IN NEARBY STATES *****

CITY           SKY/WX    TMP DP  RH WIND       PRES   REMARKS
GLASGOW MT     CLEAR     50  38  63 NE8       30.03F
GREAT FALLS MT CLEAR     43  34  70 SW8       30.11R
CHEYENNE WY    CLEAR     43  28  55 NW14G24   30.16R
SCOTTSBLUFF NE CLOUDY    43  38  82 W6        30.08F
OMAHA NE       PTCLDY    47  43  86 CALM      30.05S
DES MOINES IA  PTCLDY    45  40  82 SW3       30.05S
DAVENPORT IA   CLOUDY    45  41  86 W5        30.02F
CHICAGO IL     CLEAR     42  36  79 W3        29.99F
EAU CLAIRE WI  CLEAR     43  38  82 SW5       29.96F
LA CROSSE WI   CLEAR     48  40  73 SE6       29.98F
$$

  *****  SOME NATIONAL WEATHER *****

CITY           SKY/WX    TMP DP  RH WIND       PRES   REMARKS
LA GUARDIA NY  RAIN      53  51  93 E7        29.88S FOG
RALEIGH NC     LGT RAIN  67  65  93 NW3       29.88F
ATLANTA GA     MOCLDY    67  61  81 SW7       29.89F
NEW ORLEANS LA CLOUDY    71  67  87 NW5       29.92F
OKLAHOMA CITY  CLEAR     44  41  89 SW6       30.09F
ALBUQUERQUE NM CLOUDY    53  39  59 SW5       30.20S
SALT LAKE CITY CLEAR     52  34  50 S3        30.18S
LOS ANGELES CA CLEAR     59  54  83 S3        30.00R
BOISE ID       CLEAR     56  31  38 SE6       30.10R
SEATTLE WA     PTCLDY    64  42  44 S5        29.97F
$$

*** WEATHER ACROSS MANITOBA...SASKATCHEWAN AND ONTARIO ***
                ***ONTARIO***

CITY           SKY/WX    TMP DP  RH WIND       PRES   REMARKS
GERALDTON      CLOUDY    50  30  46 S8        29.75F
THUNDER BAY    MOCLDY    37  34  87 VRB2      29.82F
SIOUX LOOKOUT  CLOUDY    54  27  35 W8        29.72F
TORONTO        MOCLDY    45  39  81 CALM      29.96S
BIG TROUT LK   CLOUDY    41  39  93 NW10G17   29.58F
PICKLE LAKE    NOT AVBL
DRYDEN         CLOUDY    54  27  35 W14       29.75F
KENORA         MOCLDY    50  32  50 W8        29.79F
$$
                *** MANITOBA***

CITY           SKY/WX    TMP DP  RH WIND       PRES   REMARKS
BRANDON        PTCLDY    45  37  76 W12       29.91F
DAUPHIN        CLEAR     55  36  47 NW14      29.91R
ISLAND LAKE    NOT AVBL
PILOT MOUND      N/A     43  34  70 SW9         N/A
THE PAS        CLOUDY    45  28  53 N5        29.98R
THOMPSON       PTCLDY    41  30  65 N13G23    29.92F
WINNIPEG       PTCLDY    50  36  57 W10       29.84F
LYNN LAKE      CLEAR     34  30  86 NW7       30.02S
CHURCHILL      FLURRIES  32  28  86 N30G38    29.89R WCI  18
$$
                ***SASKATCHEWAN***

CITY           SKY/WX    TMP DP  RH WIND       PRES   REMARKS
ESTEVAN        CLEAR     39  30  70 NW3       29.99S
KINDERSLEY     PTCLDY    57  36  44 S5        30.02S
LLOYDMINSTER   CLEAR     61  37  41 SW10      29.99F
PRINCE ALBERT  PTCLDY    52  36  54 E9        29.99F
REGINA         CLEAR     43  25  49 SW7       30.00S
YORKTON        CLEAR     54  37  54 NW10      29.94R
N. BATTLEFORD  CLEAR     54  37  54 SE5       30.02R
LA RONGE       CLEAR     46  30  53 NE8       30.02S   C1F1C2F2C3F3C4F4C5F5C6F6C7F7C8F8C9F9CaFaCbFbCcFcCdFdCe!



USA.gov is the U.S. government's official web portal to all federal, state and local government web resources and services.